Regional Weather Roundup
Issued by NWS

Home | Current Version | Previous Version | Graphics & Text | Print | Product List | Glossary On
Versions: 1 2 3 4 5 6 7 8 9 10 11 12 13 14 15 16 17 18 19 20 21 22 23 24 25 26 27 28 29 30 31 32 33 34 35 36 37 38 39 40 41 42 43 44 45 46 47 48 49 50
000
ASUS43 KLMK 030810
RWRKY
KENTUCKY REGIONAL WEATHER ROUNDUP
NATIONAL WEATHER SERVICE LOUISVILLE KY
300 AM EST TUE MAR 03 2015

NOTE "FAIR" INDICATES FEW OR NO CLOUDS BELOW 12,000 FEET
WITH NO SIGNIFICANT WEATHER AND/OR OBSTRUCTIONS TO VISIBILITY.

KYZ001>023-026-027-061>063-070>075-030900-
WESTERN AND SOUTH CENTRAL KENTUCKY

CITY           SKY/WX    TMP DP  RH WIND       PRES   REMARKS
PADUCAH        CLOUDY    36  25  64 SE6       30.13F WCI  31
HENDERSON      CLOUDY    34  23  64 E6        30.16F WCI  29
OWENSBORO      CLOUDY    35  25  67 SE7       30.18F WCI  29
HOPKINSVILLE   CLOUDY    39  28  66 E5        30.15F
BOWLING GREEN  CLOUDY    38  25  59 NE3       30.18F
GLASGOW        CLOUDY    36  27  69 CALM      30.18F
$$

KYZ024-025-028>034-038-045-046-053-030900-
NORTH CENTRAL KENTUCKY

CITY           SKY/WX    TMP DP  RH WIND       PRES   REMARKS
LOUISVILLE/SDF CLOUDY    32  19  58 E3        30.22F
LOUISVILLE/LOU CLOUDY    32  18  56 CALM      30.22F
FORT KNOX      CLOUDY    31  20  63 E5        30.18F WCI  27
$$

KYZ035>037-039>044-047>052-055>060-089>105-030900-
NORTHEAST KENTUCKY

CITY           SKY/WX    TMP DP  RH WIND       PRES   REMARKS
LEXINGTON      PTCLDY    30  20  66 E3        30.20F
COVINGTON      CLOUDY    27  15  61 E8        30.22F WCI  19
FRANKFORT      MOCLDY    28  19  69 E3        30.20F
$$

KYZ054-064>069-076>088-106>120-030900-
SOUTHEAST KENTUCKY

CITY           SKY/WX    TMP DP  RH WIND       PRES   REMARKS
JACKSON        PTCLDY    30  19  63 NE5       30.17F WCI  25
LONDON         MOCLDY    34  22  61 CALM      30.17F
SOMERSET       CLOUDY    32  23  69 CALM      30.21S
MIDDLESBORO    CLOUDY    36  32  85 CALM      30.21F
MONTICELLO     CLOUDY    36  28  73 CALM      30.20F
$$




USA.gov is the U.S. government's official web portal to all federal, state and local government web resources and services.